| Date | Time | Temp. (oF) | Dew Point (oF) | Rel. Hum. (%) | Press. (in.) | Wind Dir. | Wind Speed (mph) | Hourly Rainfall (in.) |
|
|---|---|---|---|---|---|---|---|---|---|
| 1 | 11/29 | 00:00 | 30 | 21 | 69 | 29.90 | SW | 7 | 0.00 |
| 2 | 11/28 | 23:00 | 31 | 21 | 68 | 29.89 | W | 7 | 0.00 |
| 3 | 11/28 | 22:00 | 31 | 21 | 67 | 29.87 | W | 7 | 0.00 |
| 4 | 11/28 | 21:00 | 31 | 20 | 66 | 29.86 | WNW | 10 | 0.00 |
| 5 | 11/28 | 20:00 | 31 | 20 | 65 | 29.85 | SW | 9 | 0.00 |
| 6 | 11/28 | 19:00 | 31 | 20 | 66 | 29.82 | W | 7 | 0.00 |
| 7 | 11/28 | 18:00 | 30 | 19 | 65 | 29.80 | S | 11 | 0.00 |
| 8 | 11/28 | 17:00 | 31 | 20 | 64 | 29.77 | SW | 10 | 0.00 |
| 9 | 11/28 | 16:00 | 32 | 20 | 62 | 29.76 | SSE | 6 | 0.00 |
| 10 | 11/28 | 15:00 | 33 | 20 | 60 | 29.72 | WNW | 7 | 0.00 |
| 11 | 11/28 | 14:00 | 33 | 19 | 57 | 29.69 | SSW | 10 | 0.00 |
| 12 | 11/28 | 13:00 | 34 | 20 | 57 | 29.68 | WNW | 8 | 0.00 |
| 13 | 11/28 | 12:00 | 32 | 19 | 60 | 29.68 | W | 15 | 0.00 |
| 14 | 11/28 | 11:00 | 33 | 19 | 57 | 29.69 | SSW | 19 | 0.00 |
| 15 | 11/28 | 10:00 | 32 | 21 | 64 | 29.69 | WSW | 8 | 0.00 |
| 16 | 11/28 | 09:00 | 30 | 20 | 67 | 29.68 | W | 12 | 0.00 |
| 17 | 11/28 | 08:00 | 30 | 20 | 67 | 29.66 | W | 7 | 0.00 |
| 18 | 11/28 | 07:00 | 30 | 20 | 66 | 29.63 | W | 7 | 0.00 |
| 19 | 11/28 | 06:00 | 31 | 20 | 64 | 29.61 | W | 10 | 0.00 |
| 20 | 11/28 | 05:00 | 31 | 19 | 63 | 29.59 | WSW | 14 | 0.00 |
| 21 | 11/28 | 04:00 | 31 | 20 | 65 | 29.59 | SW | 6 | 0.00 |
| 22 | 11/28 | 03:00 | 31 | 20 | 65 | 29.58 | SW | 7 | 0.00 |
| 23 | 11/28 | 02:00 | 31 | 21 | 68 | 29.58 | SSW | 4 | 0.00 |
| 24 | 11/28 | 01:00 | 31 | 21 | 67 | 29.58 | W | 10 | 0.00 |